Weather History for KETB - May, 2013

Change the Weather History Date:

Wednesday, May 15, 2013

  Actual Average Record
Temperature  
Mean Temperature 65 °F -  
Max Temperature 77 °F 67 °F 88 °F (1991)
Min Temperature 53 °F 43 °F 30 °F (1959)
Growing Degree Days 15 (Base 50)    
Moisture  
Dew Point 40 °F    
Average Humidity 37    
Maximum Humidity 67    
Minimum Humidity 23    
Precipitation  
Precipitation 0.00 in - - ()
Sea Level Pressure  
Sea Level Pressure 29.76 in    
Wind  
Wind Speed 11 mph (WNW)    
Max Wind Speed 18 mph    
Max Gust Speed 25 mph    
Visibility 10 miles    
Events Rain    
Averages and records for this station are not official NWS values.
T = Trace of Precipitation, MM = Missing Value Source: NWS Daily Summary

Daily Weather History Graph

Daily Weather History Graph

Search for Another Location

Airport or City:

Trip Planner

Search our weather history database for the weather conditions in past years. The results will help you decide how hot, cold, wet, or windy it might be!

Date:

Astronomy

May. 15, 2013 Rise Set
Actual Time 5:27 AM CDT 8:10 PM CDT
Civil Twilight 4:54 AM CDT 8:43 PM CDT
Nautical Twilight 4:13 AM CDT 9:25 PM CDT
Astronomical Twilight 3:25 AM CDT 10:13 PM CDT
Moon 10:04 AM CDT (5/15) No Moon Set
Length of Visible Light 15h 48m
Length of Day
14h 42m
Waxing Crescent, 27% of the Moon is Illuminated
May 15
Waxing Crescent
May 17
First Quarter
May 24
Full
May 31
Last Quarter
Jun 8
New

Hourly Weather History & Observations

Time (CDT) Temp. Dew Point Humidity Pressure Visibility Wind Dir Wind Speed Gust Speed Precip Events Conditions
12:15 AM 77.0 °F 51.8 °F 41% 29.55 in 10.0 mi SW 18.4 mph 25.3 mph N/A   Clear
12:35 AM 77.0 °F 51.8 °F 41% 29.54 in 10.0 mi SW 17.3 mph 24.2 mph N/A   Clear
12:55 AM 77.0 °F 53.6 °F 44% 29.55 in 10.0 mi SW 12.7 mph 20.7 mph N/A   Clear
1:15 AM 75.2 °F 53.6 °F 47% 29.55 in 10.0 mi WSW 13.8 mph 23.0 mph N/A   Clear
1:35 AM 75.2 °F 53.6 °F 47% 29.55 in 10.0 mi WSW 13.8 mph 21.9 mph N/A   Clear
1:55 AM 73.4 °F 53.6 °F 50% 29.57 in 10.0 mi West 12.7 mph 20.7 mph N/A   Clear
2:15 AM 73.4 °F 53.6 °F 50% 29.57 in 10.0 mi West 12.7 mph - N/A   Clear
2:35 AM 73.4 °F 51.8 °F 47% 29.58 in 10.0 mi West 9.2 mph - N/A   Clear
2:55 AM 73.4 °F 46.4 °F 38% 29.59 in 10.0 mi WNW 10.4 mph 19.6 mph N/A   Clear
3:15 AM 71.6 °F 50.0 °F 46% 29.60 in 10.0 mi West 8.1 mph - N/A   Clear
3:35 AM 69.8 °F 46.4 °F 43% 29.61 in 10.0 mi West 5.8 mph - N/A   Clear
3:55 AM 69.8 °F 41.0 °F 35% 29.62 in 10.0 mi West 12.7 mph 17.3 mph N/A   Clear
4:15 AM 69.8 °F 37.4 °F 31% 29.63 in 10.0 mi WNW 8.1 mph 16.1 mph N/A   Clear
4:35 AM 68.0 °F 37.4 °F 33% 29.64 in 10.0 mi WNW 10.4 mph 16.1 mph N/A   Clear
4:55 AM 68.0 °F 37.4 °F 33% 29.65 in 10.0 mi West 11.5 mph - N/A   Clear
5:15 AM 66.2 °F 37.4 °F 35% 29.66 in 10.0 mi West 11.5 mph - N/A   Clear
5:35 AM 64.4 °F 37.4 °F 37% 29.67 in 10.0 mi West 10.4 mph - N/A   Clear
5:55 AM 64.4 °F 37.4 °F 37% 29.68 in 10.0 mi West 9.2 mph 17.3 mph N/A   Clear
6:15 AM 62.6 °F 37.4 °F 39% 29.70 in 10.0 mi West 8.1 mph - N/A   Clear
6:35 AM 64.4 °F 37.4 °F 37% 29.71 in 10.0 mi WNW 9.2 mph - N/A   Clear
6:55 AM 64.4 °F 41.0 °F 42% 29.72 in 10.0 mi WNW 9.2 mph - N/A   Clear
7:15 AM 64.4 °F 41.0 °F 42% 29.73 in 10.0 mi WNW 10.4 mph - N/A   Clear
7:35 AM 64.4 °F 41.0 °F 42% 29.75 in 10.0 mi WNW 11.5 mph 16.1 mph N/A   Clear
7:55 AM 66.2 °F 42.8 °F 43% 29.76 in 10.0 mi WNW 9.2 mph 16.1 mph N/A   Clear
8:15 AM 66.2 °F 42.8 °F 43% 29.76 in 10.0 mi NW 13.8 mph 19.6 mph N/A   Clear
8:35 AM 66.2 °F 42.8 °F 43% 29.78 in 10.0 mi WNW 10.4 mph 19.6 mph N/A   Clear
8:55 AM 68.0 °F 42.8 °F 40% 29.79 in 10.0 mi WNW 15.0 mph 19.6 mph N/A   Clear
9:15 AM 68.0 °F 44.6 °F 43% 29.81 in 10.0 mi WNW 13.8 mph 24.2 mph N/A   Clear
9:35 AM 68.0 °F 44.6 °F 43% 29.82 in 10.0 mi WNW 15.0 mph 21.9 mph N/A   Clear
9:55 AM 68.0 °F 44.6 °F 43% 29.82 in 10.0 mi NW 13.8 mph 18.4 mph N/A   Clear
10:15 AM 69.8 °F 42.8 °F 38% 29.82 in 10.0 mi NNW 15.0 mph 19.6 mph N/A   Clear
10:35 AM 69.8 °F 42.8 °F 38% 29.83 in 10.0 mi NNW 13.8 mph 19.6 mph N/A   Clear
10:55 AM 69.8 °F 42.8 °F 38% 29.83 in 10.0 mi NNW 11.5 mph 17.3 mph N/A   Clear
11:15 AM 69.8 °F 42.8 °F 38% 29.82 in 10.0 mi NW 15.0 mph 18.4 mph N/A   Clear
11:35 AM 69.8 °F 41.0 °F 35% 29.84 in 10.0 mi NW 12.7 mph 16.1 mph N/A   Clear
11:55 AM 69.8 °F 39.2 °F 33% 29.83 in 10.0 mi NW 12.7 mph 18.4 mph N/A   Clear
12:15 PM 71.6 °F 39.2 °F 31% 29.83 in 10.0 mi North 5.8 mph - N/A   Clear
12:35 PM 71.6 °F 35.6 °F 27% 29.83 in 10.0 mi NNW 5.8 mph - N/A   Clear
12:55 PM 71.6 °F 41.0 °F 33% 29.82 in 10.0 mi WNW 9.2 mph - N/A   Clear
1:15 PM 71.6 °F 37.4 °F 29% 29.83 in 10.0 mi WNW 9.2 mph - N/A   Clear
1:35 PM 73.4 °F 37.4 °F 27% 29.83 in 10.0 mi West 11.5 mph 17.3 mph N/A   Clear
1:55 PM 73.4 °F 39.2 °F 29% 29.83 in 10.0 mi WNW 10.4 mph - N/A   Clear
2:15 PM 73.4 °F 37.4 °F 27% 29.83 in 10.0 mi WSW 5.8 mph 10.4 mph N/A   Clear
2:35 PM 75.2 °F 35.6 °F 24% 29.82 in 10.0 mi West 10.4 mph - N/A   Scattered Clouds
2:55 PM 73.4 °F 35.6 °F 25% 29.81 in 10.0 mi West 8.1 mph 16.1 mph N/A   Clear
3:15 PM 73.4 °F 35.6 °F 25% 29.82 in 10.0 mi West 11.5 mph 19.6 mph N/A   Clear
3:35 PM 73.4 °F 35.6 °F 25% 29.81 in 10.0 mi West 11.5 mph - N/A   Clear
3:55 PM 73.4 °F 33.8 °F 23% 29.80 in 10.0 mi West 11.5 mph 19.6 mph N/A   Clear
4:15 PM 73.4 °F 33.8 °F 23% 29.80 in 10.0 mi WNW 6.9 mph - N/A   Clear
4:35 PM 71.6 °F 33.8 °F 25% 29.82 in 10.0 mi WNW 12.7 mph 17.3 mph N/A   Scattered Clouds
4:55 PM 69.8 °F 35.6 °F 28% 29.80 in 10.0 mi WNW 5.8 mph - N/A Rain Light Rain
5:15 PM 71.6 °F 35.6 °F 27% 29.81 in 10.0 mi West 8.1 mph - N/A   Mostly Cloudy
5:35 PM 71.6 °F 35.6 °F 27% 29.80 in 10.0 mi WNW 9.2 mph 16.1 mph N/A   Scattered Clouds
5:55 PM 71.6 °F 35.6 °F 27% 29.80 in 10.0 mi NW 9.2 mph - N/A   Clear
6:15 PM 71.6 °F 35.6 °F 27% 29.80 in 10.0 mi WNW 9.2 mph - N/A   Clear
6:35 PM 71.6 °F 33.8 °F 25% 29.80 in 10.0 mi WNW 10.4 mph 16.1 mph N/A   Clear
6:55 PM 71.6 °F 35.6 °F 27% 29.80 in 10.0 mi West 13.8 mph - N/A   Clear
7:15 PM 69.8 °F 33.8 °F 27% 29.81 in 10.0 mi West 8.1 mph - N/A   Clear
7:35 PM 69.8 °F 35.6 °F 28% 29.82 in 10.0 mi WNW 5.8 mph - N/A   Clear
7:55 PM 68.0 °F 35.6 °F 30% 29.82 in 10.0 mi WNW 4.6 mph - N/A   Clear
8:15 PM 66.2 °F 35.6 °F 32% 29.83 in 10.0 mi West 3.5 mph - N/A   Clear
8:35 PM 64.4 °F 35.6 °F 34% 29.83 in 10.0 mi West 4.6 mph - N/A   Clear
8:55 PM 62.6 °F 35.6 °F 37% 29.84 in 10.0 mi West 3.5 mph - N/A   Clear
9:15 PM 60.8 °F 37.4 °F 42% 29.84 in 10.0 mi Calm Calm - N/A   Clear
9:35 PM 60.8 °F 35.6 °F 39% 29.85 in 10.0 mi West 3.5 mph - N/A   Clear
9:55 PM 59.0 °F 37.4 °F 45% 29.85 in 10.0 mi Calm Calm - N/A   Clear
10:15 PM 59.0 °F 39.2 °F 48% 29.84 in 10.0 mi SW 3.5 mph - N/A   Clear
10:35 PM 53.6 °F 42.8 °F 67% 29.84 in 10.0 mi Calm Calm - N/A   Clear
10:55 PM 55.4 °F 39.2 °F 54% 29.84 in 10.0 mi WSW 3.5 mph - N/A   Clear
11:15 PM 57.2 °F 37.4 °F 48% 29.84 in 10.0 mi West 4.6 mph - N/A   Clear
11:35 PM 59.0 °F 35.6 °F 42% 29.84 in 10.0 mi West 5.8 mph - N/A   Clear
11:55 PM 59.0 °F 37.4 °F 45% 29.84 in 10.0 mi West 3.5 mph - N/A   Clear